Showing default

COSMOS 2093, 20738

Orbit data source: Space-Track

COSMOS 2093, 20738 is a payload satellite owned by UNKS (CIS) in LEO that was launched on Wed, 08 Aug 1990 UTC via a TSIKLON-3 launch vehicle from the Plesetsk Missile And Space Complex (PKMTR). Payload-class satellites include a variety of spacecraft equipped with specific instruments for various scientific and technological missions. These include communications satellites like Starlink; space stations such as the ISS; scientific satellites like the Hubble; Earth observation satellites from companies like Planet Labs, Umbra, and HawkEye 360; GPS; miniature CubeSats for education and research; and military/defense satellites.

Loading next visibility...
Identifier
20738, 1990-070D
Orbit
LEO
Country
Flag of CISCIS
Related business
Manufacturer
NPO PM
Mission
Defense Communications
Bus & Motor
STRELA-3, Unknown motor
Mass
225 kg wet, 225 kg dry
Launch date (UTC)
1990-08-08 (35 years ago)
Launch vehicle
TSIKLON-3
Launch site
Plesetsk Missile And Space Complex (PKMTR)
Object type
Payload
Rocket body
Debris
Shape & HBR
Cyl, 0.8 m
Radar Cross Section
1.257 m², Large (>1 m²)

Expand to show TLE details & history
Last TLE update: 11 hours ago

TLE from 11 hours ago
0 COSMOS 2093
1 20738U 90070D   25350.98459681  .00000015  00000-0  20917-4 0  9990
2 20738  82.5756  57.6074 0009473 156.5228  16.7867 12.64088923631352
Epoch: 2025-12-16T23:37Z
TLE epoch observation values (Epoch: 2025-12-16T23:37:49.164Z)
Latitude
6.53208°
Longitude
156.44088°
Altitude
1,401.177 km
Speed
7.163 km/s
True Right ascension
15h 47m 01s
True Declination
6° 29' 48"
Sunlit
Object was in daylight at epoch
Visualization orbit readout
Latitude
Unknown
Longitude
Unknown
Altitude
Unknown
Speed
Unknown
Apparent Right ascension
Unknown
Apparent Declination
Unknown
Sunlit
N/A
Visualization observer readout
Local Sidereal Time
09:07:45
Azimuth
Unknown
Elevation
Unknown
Doppler factor
Unknown
Orbital elements
Apogee altitude
1,410.802 km
Perigee altitude
1,396.059 km
Semi-major axis
7,781.568 km
Eccentricity
0.00095
Inclination
82.5756°
RAAN
57.6074°
Arg. of periapsis
156.5228°
True anomaly
16.81809°
Mean anomaly
16.7867°
Eccentric anomaly
16.80239°
Mean motion
3.16186 °/min
Orbital period
113.86 mins
BSTAR
0.000020917
Loading maneuver chart data...
Computing Atmospheric mass density...
Loading historical data...
Loading historical data...
Loading historical data...
Loading historical data...
Loading historical data...
Loading historical data...
Loading historical data...

Documentation

Showing up to 5 results
|